EN

Hourly Weather Aizawl

Today, 27 January, Wednesday

Time Temperature Precipitation Wind Pressure Humidity
00:00 +9°C° 0 mm 1 mps 689 mmHg 74%
01:00 +9°C° 0 mm 1 mps 689 mmHg 76%
02:00 +9°C° 0 mm 1 mps 689 mmHg 77%
03:00 +8°C° 0 mm 1 mps 689 mmHg 79%
04:00 +8°C° 0 mm 1 mps 689 mmHg 79%
05:00 +8°C° 0 mm 1 mps 689 mmHg 80%
06:00 +8°C° 0 mm 1 mps 689 mmHg 81%
07:00 +11°C° 0 mm 1 mps 690 mmHg 69%
08:00 +13°C° 0 mm 0 mps 691 mmHg 57%
09:00 +17°C° 0 mm 0 mps 691 mmHg 45%
10:00 +19°C° 0 mm 0 mps 691 mmHg 38%
11:00 +22°C° 0 mm 0 mps 691 mmHg 31%
12:00 +26°C° 0 mm 1 mps 691 mmHg 24%
13:00 +26°C° 0 mm 1 mps 691 mmHg 24%
14:00 +26°C° 0 mm 1 mps 690 mmHg 23%
15:00 +26°C° 0 mm 1 mps 690 mmHg 23%
16:00 +23°C° 0 mm 1 mps 689 mmHg 33%
17:00 +19°C° 0 mm 1 mps 689 mmHg 44%
18:00 +14°C° 0 mm 0 mps 689 mmHg 55%
19:00 +13°C° 0 mm 0 mps 689 mmHg 58%
20:00 +12°C° 0 mm 0 mps 690 mmHg 61%
21:00 +11°C° 0 mm 0 mps 690 mmHg 64%
22:00 +10°C° 0 mm 0 mps 690 mmHg 66%
23:00 +11°C° 0 mm 1 mps 690 mmHg 68%

Tomorrow, 28 January, Thursday

Time Temperature Precipitation Wind Pressure Humidity
00:00 +10°C° 0 mm 1 mps 690 mmHg 69%
01:00 +10°C° 0 mm 1 mps 690 mmHg 70%
02:00 +9°C° 0 mm 1 mps 689 mmHg 71%
03:00 +9°C° 0 mm 1 mps 689 mmHg 71%
04:00 +9°C° 0 mm 1 mps 689 mmHg 71%
05:00 +9°C° 0 mm 1 mps 689 mmHg 71%
06:00 +8°C° 0 mm 1 mps 689 mmHg 71%
07:00 +12°C° 0 mm 1 mps 690 mmHg 61%
08:00 +14°C° 0 mm 0 mps 691 mmHg 50%
09:00 +18°C° 0 mm 0 mps 692 mmHg 39%
10:00 +21°C° 0 mm 0 mps 692 mmHg 33%
11:00 +25°C° 0 mm 1 mps 692 mmHg 26%
12:00 +28°C° 0 mm 1 mps 693 mmHg 20%
13:00 +28°C° 0 mm 1 mps 692 mmHg 19%
14:00 +28°C° 0 mm 1 mps 691 mmHg 19%
15:00 +28°C° 0 mm 1 mps 690 mmHg 18%
16:00 +24°C° 0 mm 1 mps 690 mmHg 28%
17:00 +18°C° 0 mm 0 mps 690 mmHg 39%
18:00 +14°C° 0 mm 0 mps 689 mmHg 49%
19:00 +13°C° 0 mm 0 mps 690 mmHg 51%
20:00 +12°C° 0 mm 0 mps 690 mmHg 53%
21:00 +13°C° 0 mm 1 mps 690 mmHg 56%
22:00 +12°C° 0 mm 1 mps 690 mmHg 57%
23:00 +12°C° 0 mm 1 mps 690 mmHg 58%

Day after tomorrow, 29 January, Friday

Time Temperature Precipitation Wind Pressure Humidity
00:00 +11°C° 0 mm 1 mps 690 mmHg 59%
01:00 +11°C° 0 mm 1 mps 689 mmHg 60%
02:00 +10°C° 0 mm 1 mps 689 mmHg 60%
03:00 +10°C° 0 mm 1 mps 688 mmHg 61%
04:00 +10°C° 0 mm 1 mps 689 mmHg 61%
05:00 +10°C° 0 mm 1 mps 689 mmHg 61%
06:00 +9°C° 0 mm 1 mps 689 mmHg 60%
07:00 +13°C° 0 mm 1 mps 690 mmHg 52%
08:00 +15°C° 0 mm 0 mps 691 mmHg 44%
09:00 +19°C° 0 mm 0 mps 692 mmHg 36%
10:00 +23°C° 0 mm 1 mps 691 mmHg 30%
11:00 +25°C° 0 mm 1 mps 691 mmHg 25%
12:00 +27°C° 0 mm 1 mps 691 mmHg 19%
13:00 +27°C° 0 mm 1 mps 691 mmHg 19%
14:00 +27°C° 0 mm 2 mps 690 mmHg 18%
15:00 +27°C° 0 mm 2 mps 689 mmHg 18%
16:00 +23°C° 0 mm 1 mps 689 mmHg 26%
17:00 +20°C° 0 mm 1 mps 688 mmHg 34%
18:00 +14°C° 0 mm 0 mps 688 mmHg 42%
19:00 +13°C° 0 mm 0 mps 688 mmHg 44%
20:00 +12°C° 0 mm 0 mps 689 mmHg 46%
21:00 +11°C° 0 mm 0 mps 689 mmHg 48%
22:00 +12°C° 0 mm 1 mps 689 mmHg 49%
23:00 +11°C° 0 mm 1 mps 689 mmHg 49%

30 January, Saturday

Time Temperature Precipitation Wind Pressure Humidity
00:00 +11°C° 0 mm 1 mps 689 mmHg 50%
01:00 +11°C° 0 mm 1 mps 689 mmHg 50%
02:00 +11°C° 0 mm 1 mps 689 mmHg 49%
03:00 +11°C° 0 mm 1 mps 688 mmHg 49%
04:00 +11°C° 0 mm 1 mps 689 mmHg 48%
05:00 +11°C° 0 mm 1 mps 689 mmHg 47%
06:00 +11°C° 0 mm 1 mps 689 mmHg 46%
07:00 +14°C° 0 mm 1 mps 690 mmHg 41%
08:00 +16°C° 0 mm 0 mps 691 mmHg 35%
09:00 +20°C° 0 mm 0 mps 692 mmHg 29%
10:00 +23°C° 0 mm 1 mps 692 mmHg 28%
11:00 +25°C° 0 mm 1 mps 692 mmHg 27%
12:00 +27°C° 0 mm 1 mps 692 mmHg 25%
13:00 +26°C° 0 mm 1 mps 691 mmHg 27%
14:00 +26°C° 0 mm 1 mps 691 mmHg 28%
15:00 +25°C° 0 mm 1 mps 690 mmHg 30%
16:00 +23°C° 0 mm 1 mps 690 mmHg 38%
17:00 +18°C° 0 mm 0 mps 689 mmHg 46%
18:00 +15°C° 0 mm 0 mps 689 mmHg 54%
19:00 +15°C° 0 mm 0 mps 690 mmHg 56%
20:00 +14°C° 0 mm 0 mps 690 mmHg 59%
21:00 +13°C° 0 mm 0 mps 691 mmHg 61%
22:00 +12°C° 0 mm 0 mps 691 mmHg 62%
23:00 +12°C° 0 mm 0 mps 691 mmHg 64%

31 January, Sunday

Time Temperature Precipitation Wind Pressure Humidity
00:00 +12°C° 0 mm 0 mps 691 mmHg 65%
01:00 +12°C° 0 mm 0 mps 690 mmHg 63%
02:00 +12°C° 0 mm 0 mps 690 mmHg 62%
03:00 +13°C° 0 mm 0 mps 690 mmHg 60%
04:00 +13°C° 0 mm 1 mps 690 mmHg 63%
05:00 +12°C° 0 mm 1 mps 690 mmHg 66%
06:00 +12°C° 0 mm 1 mps 690 mmHg 68%
07:00 +15°C° 0 mm 1 mps 691 mmHg 59%
08:00 +17°C° 0 mm 0 mps 692 mmHg 51%
09:00 +20°C° 0 mm 0 mps 693 mmHg 42%
10:00 +22°C° 0 mm 0 mps 693 mmHg 36%
11:00 +25°C° 0 mm 1 mps 693 mmHg 30%
12:00 +27°C° 0 mm 1 mps 693 mmHg 25%
13:00 +27°C° 0 mm 1 mps 692 mmHg 25%
14:00 +26°C° 0 mm 1 mps 692 mmHg 26%
15:00 +26°C° 0 mm 2 mps 691 mmHg 27%
16:00 +23°C° 0 mm 1 mps 691 mmHg 35%
17:00 +20°C° 0 mm 1 mps 690 mmHg 43%
18:00 +15°C° 0 mm 0 mps 690 mmHg 51%
19:00 +14°C° 0 mm 0 mps 691 mmHg 53%
20:00 +13°C° 0 mm 0 mps 691 mmHg 55%
21:00 +13°C° 0 mm 0 mps 692 mmHg 57%
22:00 +13°C° 0 mm 1 mps 692 mmHg 59%
23:00 +13°C° 0 mm 1 mps 692 mmHg 60%

1 February, Monday

Time Temperature Precipitation Wind Pressure Humidity
00:00 +12°C° 0 mm 1 mps 692 mmHg 61%
01:00 +12°C° 0 mm 1 mps 692 mmHg 62%
02:00 +12°C° 0 mm 1 mps 692 mmHg 62%
03:00 +11°C° 0 mm 1 mps 691 mmHg 63%
04:00 +11°C° 0 mm 1 mps 691 mmHg 64%
05:00 +11°C° 0 mm 1 mps 691 mmHg 64%
06:00 +11°C° 0 mm 1 mps 691 mmHg 64%
07:00 +14°C° 0 mm 1 mps 692 mmHg 56%
08:00 +16°C° 0 mm 0 mps 693 mmHg 47%
09:00 +20°C° 0 mm 0 mps 694 mmHg 38%
10:00 +22°C° 0 mm 0 mps 694 mmHg 33%
11:00 +24°C° 0 mm 0 mps 694 mmHg 28%
12:00 +28°C° 0 mm 1 mps 693 mmHg 23%
13:00 +27°C° 0 mm 1 mps 693 mmHg 23%
14:00 +27°C° 0 mm 1 mps 692 mmHg 23%
15:00 +27°C° 0 mm 1 mps 691 mmHg 23%
16:00 +23°C° 0 mm 1 mps 691 mmHg 31%
17:00 +20°C° 0 mm 1 mps 690 mmHg 39%
18:00 +15°C° 0 mm 0 mps 690 mmHg 48%
19:00 +14°C° 0 mm 0 mps 690 mmHg 50%
20:00 +13°C° 0 mm 0 mps 691 mmHg 53%
21:00 +12°C° 0 mm 0 mps 691 mmHg 55%
22:00 +11°C° 0 mm 0 mps 691 mmHg 57%
23:00 +11°C° 0 mm 0 mps 691 mmHg 58%
Show more

We Need Your Consent

Meteoprog and our Service Providers may store and access personal data such as cookies, device identifiers or other similar technologies on your device and process such data to personalise content and ads, as well as provide social media features and to analyse the traffic.

  • Store and/or access information on your device

    Cookies, device identifiers or other information can be stored or accessed on your device for the purposes indicated above.

  • Personalised ads and content, ad and content measurement, audience insights, and products development

    Ads and content can be personalised based on a profile. More data can be added to better personalise ads and content. Ad and content performance can be measured. Insights about the audience who saw the ads and content can be derived. Such data can be used to develop or improve user’s experience, systems and software.

By clicking ‘I Agree’ you will allow the use of indicated cookies, device identifiers, web beacons or other similar technologies. Your settings can be changed in the browser on your device.

For certain purposes, legitimate interests may be relied on, rather than consent. You can read more about this in our Privacy and Cookie Policy.